#timestamp,LO_Frequency,Hit,StdDev 
1608490835.7,286047001.7,P
1608490855.5,286047000.3,N
1608490875.4,286046999.8,N
1608490895.2,286047001.8,N
1608490915.0,286047002.6,N
1608490915.9,286047002.6,N
1608490935.8,286047000.5,N
1608490955.6,286047002.7,N
1608490975.5,286046999.7,N
1608490995.3,286047002.7,N
1608491015.1,286047001.2,N
1608491035.9,286046998.7,N
1608491055.7,286046999.5,N
1608491075.5,286046996.5,N
1608491095.4,286046997.7,N
1608491115.2,286047000.9,N
1608491135.1,286047000.6,N
1608491136.0,286047000.6,N
1608491155.8,286047001.2,N
1608491175.6,286047000.5,N
1608491195.5,286046999.4,N
1608491215.3,286047001.1,N
1608491235.1,286046998.5,N
1608491255.9,286047000.4,N
1608491275.7,286047000.5,N
1608491295.6,286047001.0,N
1608491315.4,286047002.4,N
1608491335.2,286047003.6,N
1608491355.1,286047001.8,N
1608491356.0,286047001.8,N
1608491375.8,286047004.0,N
1608491395.6,286047001.4,N
1608491415.5,286047003.9,N
1608491435.3,286047002.6,N
1608491455.1,286047003.5,N
1608491475.9,286047005.8,Y
1608491495.7,286047003.7,P
1608491515.6,286047005.6,P
1608491535.4,286047004.1,N
1608491555.2,286047004.3,N
1608491575.1,286047003.4,N
1608491576.0,286047003.4,N
1608491595.8,286047004.2,Y
1608491615.7,286046996.5,P
1608491635.5,286046998.2,N
1608491655.3,286047002.8,N
1608491675.2,286047001.4,N
1608491695.9,286047002.1,N
1608491715.7,286047002.2,N
1608491735.6,286047005.0,N
1608491755.4,286047005.1,N
1608491775.2,286047005.4,N
1608491795.1,286047005.8,N
1608491796.0,286047005.8,N
1608491815.8,286047005.0,N
1608491835.7,286047003.1,N
1608491855.5,286047003.6,N
1608491875.3,286047005.3,N
1608491895.2,286047003.9,N
1608491915.0,286047003.7,N
1608491915.9,286047003.7,N
1608491935.7,286047004.4,N
1608491955.6,286047005.7,N
1608491975.4,286047003.3,N
1608491995.3,286047002.6,N
1608492015.1,286047002.8,N
1608492016.0,286047002.8,N
1608492035.8,286047002.3,N
1608492055.7,286047001.7,N
1608492075.5,286047001.5,N
1608492095.3,286047000.1,N
1608492115.2,286046998.6,N
1608492135.0,286046998.4,N
1608492135.9,286046998.4,N
1608492155.8,286047002.5,N
1608492175.6,286047004.2,N
1608492195.4,286047001.5,N
1608492215.3,286047004.4,N
1608492235.1,286047003.5,N
1608492255.8,286047003.3,N
1608492275.7,286047003.2,N
1608492295.5,286047002.4,N
1608492315.4,286046996.7,N
1608492335.2,286046997.1,N
1608492355.0,286046995.0,N
1608492355.9,286046995.0,N
1608492375.8,286046997.9,N
1608492395.6,286046995.2,N
1608492415.4,286046995.7,N
1608492435.3,286046996.0,N
1608492455.1,286046995.0,N
1608492475.9,286046996.2,N
1608492495.7,286046995.7,N
1608492515.5,286046995.3,N
1608492535.4,286046993.4,N
1608492555.2,286046995.7,N
1608492575.0,286046997.2,N
1608492575.9,286046997.2,N
1608492595.8,286046997.3,N
1608492615.6,286046997.7,N
1608492635.5,286046995.7,N
1608492655.3,286046997.5,N
1608492675.1,286047011.9,Y
1608492695.9,286047000.5,P
1608492715.7,286046999.8,N
1608492735.6,286047000.8,N
1608492755.4,286046996.5,Y
1608492775.2,286047000.8,P
1608492795.1,286046995.0,P
1608492796.0,286046995.0,N
1608492815.8,286046999.1,N
1608492835.6,286047001.2,N
1608492855.5,286046998.6,N
1608492875.3,286046999.6,N
1608492895.2,286046998.5,N
1608492915.9,286047000.2,N
1608492935.7,286047002.0,N
1608492955.6,286046998.6,N
1608492975.4,286047000.8,N
1608492995.2,286047000.6,N
1608493015.1,286046996.5,N
1608493016.0,286046996.5,N
1608493035.8,286046996.9,N
1608493055.7,286046996.6,N
1608493075.5,286046998.5,N
1608493095.3,286047002.0,N
1608493115.2,286047002.2,N
1608493135.0,286047003.5,N
1608493135.9,286047003.5,N
1608493155.8,286047004.1,N
1608493175.6,286047002.5,N
1608493195.4,286047002.5,N
1608493215.3,286047002.3,N
1608493235.1,286047000.1,N
1608493255.8,286047002.5,N
1608493275.7,286047001.9,N
1608493295.5,286047000.4,N
1608493315.4,286047000.1,N
1608493335.2,286047000.7,N
1608493355.0,286047002.3,N
1608493355.9,286047002.3,N
1608493375.8,286047001.7,N
1608493395.6,286047003.8,N
1608493415.5,286047001.5,N
1608493435.3,286047003.9,N
1608493455.1,286047005.3,N
1608493475.9,286047008.7,Y
1608493495.7,286047006.9,P
1608493515.5,286047004.5,N
1608493535.4,286047007.5,P
1608493555